Погода в Дубовском

Россия / Волгоградская область     50°31′50″N   41°59′26″E
темп.,
°C
ветер,
м/с
пор.,
м/с
влажн.,
%
обл.,
%
осадки,
мм/ч
давл.,
гПа
погр.,
м
5 марта, пт
пт500:00+3зюз9198465 0.0 1006703
03:00+3зюз7158582 0.1 1006618
06:00+2зюз71396100 0.4 1006509
09:00+2з4999100 0.8 1007370
12:00+1сз5898100 0.1 1009480
15:00+2сз4584100 0.1 1010711
18:000ссз3587100 0.0 1013267
21:00−1ссв2487100 0.0 1015145
6 марта, сб
сб600:00−2ссв2287100 0.0 101552
03:00−3св2388100 0.0 1016128
06:00−3всв3482100 0.0 1016227
09:00−3в3579100 0.0 1016326
12:00−2св3488100 0.4 1015347
15:00−2св3492100 1.0 1013332
18:00−3ссв3494100 0.5 1013285
21:00−4св2494100 0.6 1014241
7 марта, вс
вс700:00−4с2395100 0.5 1015158
03:00−4зсз2394100 1.1 1017230
06:00−5сз5889100 0.6 1018519
09:00−5з587866 0.6 1019585
12:00−2зюз710640 0.0 10171254
15:00−1юз8136035 0.0 10141383
18:00−1юз81570100 0.0 10111152
21:00−1зюз101870100 0.0 10091087
8 марта, пн
пн800:00−1зюз8158886 0.0 1009864
03:00−5ссз139688 0.8 1009246
06:00−2юз51292100 0.3 1008680
09:00−1юз91488100 0.4 1006937
12:00+1зюз101583100 0.1 10051228
15:00+1з101590100 0.4 10051270
18:00−3сз8136882 0.4 10081189
21:00−6зсз5106551 0.4 1013627
9 марта, вт
вт900:00−7зсз36690 0.0 1014257
03:00−7зюз236945 0.0 1014123
06:00−6ююз2270100 0.0 101495
09:00−5ююв1156100 0.0 1014232
12:00−3в2146100 0.0 1013684
15:00−3ссв2250100 0.0 1013994
18:00−5ссз346895 0.0 1013372
21:00−6ссз588662 0.0 1016451